Terminal Aerodrome Forecast
Issued by NWS Brownsville, TX

Home | Current Version | Previous Version | Text Only | Print | Product List | Glossary On
Versions: 1 2 3 4 5 6 7 8 9 10 11 12 13 14 15 16 17 18 19 20 21 22 23 24 25 26 27
000
FTUS44 KBRO 170500
TAFBRO
TAF
KBRO 170529Z 1706/1806 00000KT P6SM FEW250
     FM171500 18011KT P6SM SCT250
     FM172100 15013KT P6SM VCSH SCT035 SCT250=

USA.gov is the U.S. government's official web portal to all federal, state and local government web resources and services.